CAPE
0 0 0 0 0 0 0 0 0 0 0 0 0 0 0 0 0 0 0 0 0 0
0 0 0 0 0 0 0 0 0 0 0 0 0 0 0 0 0 0 0 0 0 0
0 0 0 0 0 0 0 0 0 0 0 0 0 0 0 0 0 0 0 0 0 0
0 0 0 0 0 0 0 0 0 0 0 0 0 0 0 0 0 0 0 0 0 0
0 0 0 0 0 0 0 0 0 0 0 0 0 0 0 0 0 0 0 0 0 0
0 0 0 0 0 0 0 0 0 0 0 0 0 0 0 0 0 0 0 0 0 0
0 0 0 0 0 0 0 0 0 0 0 0 0 0 0 0 0 0 0 0 0 0
0 0 0 0 0 0 0 0 0 0 0 0 0 0 0 0 0 0 0 0 0 0
0 0 0 0 0 0 0 0 0 0 0 0 0 0 0 0 0 0 0 0 0 0
0 0 0 0 0 0 0 0 0 0 0 0 0 0 0 0 0 0 0 0 0 0
0 0 0 0 0 0 0 0 0 0 0 0 0 0 0 0 0 0 0 0 0 0
0 0 0 0 0 0 0 0 0 0 0 0 0 0 0 0 0 0 0 0 0 2
0 0 0 0 0 0 0 0 0 0 0 0 0 0 0 0 0 0 0 0 2 11
0 0 0 0 0 0 0 0 0 0 0 0 0 0 0 0 0 1 2 1 0 2
CIN
0 0 0 0 0 0 0 0 0 0 0 0 0 0 0 0 0 0 0 0 0 0
0 0 0 0 0 0 0 0 0 0 0 0 0 0 0 0 0 0 0 0 0 0
0 0 0 0 0 0 0 0 0 0 0 0 0 0 0 0 0 0 0 0 0 0
0 0 0 0 0 0 0 0 0 0 0 0 0 0 0 0 0 0 0 0 0 0
0 0 0 0 0 0 0 0 0 0 0 0 0 0 0 0 0 0 0 0 0 0
0 0 0 0 0 0 0 0 0 0 0 0 0 0 0 0 0 0 0 0 0 0
0 0 0 0 0 0 0 0 0 0 0 0 0 0 0 0 0 0 0 0 0 0
0 0 0 0 0 0 0 0 0 0 0 0 0 0 0 0 0 0 0 0 0 0
0 0 0 0 0 0 0 0 0 0 0 0 0 0 0 0 0 0 0 0 0 0
0 0 0 0 0 0 0 0 0 0 0 0 0 0 0 0 0 0 0 0 0 0
0 0 0 0 0 0 0 0 0 0 0 0 0 0 0 0 0 0 0 0 0 0
0 0 0 0 0 0 0 0 0 0 0 0 0 0 0 0 0 0 0 0 0 -3
0 0 0 0 0 0 0 0 0 0 0 0 0 0 0 0 0 0 0 0 -3 -1
0 0 0 0 0 0 0 0 0 0 0 0 0 0 0 0 -1 -5 -4 -3 -3 -3
Wind_Speed
19 20 21 23 25 27 29 31 33 35 35 35 35 36 37 38 39 40 41 43 43 44
19 21 22 24 26 28 30 32 35 35 35 35 36 37 38 39 41 41 42 43 42 44
20 21 23 25 28 30 32 34 35 35 35 36 37 38 39 41 42 43 42 42 44 46
21 23 24 27 29 32 33 34 35 35 36 37 38 39 41 42 43 42 43 44 47 47
21 23 26 28 30 32 34 34 35 36 36 37 39 40 42 42 42 44 44 47 47 47
22 25 27 30 31 32 34 35 35 36 37 38 40 41 40 42 43 43 46 47 48 48
23 26 28 29 31 33 34 35 36 36 37 38 39 40 42 41 44 45 45 47 46 46
24 26 28 30 32 33 34 35 35 37 38 39 40 41 42 44 45 46 47 46 44 43
24 27 29 31 33 33 35 35 36 38 40 41 41 42 44 44 46 46 48 48 45 44
25 28 31 32 33 35 36 37 39 40 42 43 43 44 45 46 45 46 46 45 45 44
26 29 31 32 34 35 36 39 42 43 43 43 44 46 46 45 43 44 43 43 42 42
28 30 31 33 34 36 39 42 43 43 43 46 46 46 46 46 44 43 43 40 39 40
28 29 31 32 35 38 41 42 42 44 44 45 48 46 45 44 44 44 42 40 39 42
28 29 30 33 36 40 41 43 45 47 47 46 46 46 46 45 44 43 43 44 44 42
Wind_Direction
3 1 359 357 354 352 350 348 348 345 345 344 344 343 342 339 338 336 334 332 331 330
359 358 356 353 352 350 348 346 345 345 345 344 343 342 340 338 336 335 333 331 330 330
354 353 352 351 349 347 346 346 346 345 345 344 342 341 339 337 335 333 333 332 330 329
349 349 349 348 347 347 346 346 346 345 344 342 340 339 337 336 335 334 332 332 330 328
347 348 347 347 347 347 346 346 345 344 343 341 340 339 337 335 335 333 332 331 330 328
345 345 344 345 346 347 346 345 344 343 342 340 339 338 337 335 334 334 332 331 330 328
342 342 343 345 345 345 345 344 343 343 342 340 339 338 337 336 334 333 332 331 330 329
342 344 345 344 344 344 344 343 343 342 342 341 340 339 337 335 334 333 332 332 331 330
342 344 343 343 343 343 343 344 343 342 342 341 340 338 337 336 335 334 333 332 331 331
342 342 342 343 343 343 343 343 342 342 341 340 339 338 338 337 335 334 334 333 332 332
341 341 342 343 343 343 343 342 341 341 340 339 339 339 338 337 336 334 334 334 334 334
340 341 342 343 343 344 342 341 341 341 341 340 340 340 339 337 336 335 334 335 335 335
342 342 343 344 344 342 341 340 341 341 341 341 339 340 340 339 337 335 335 336 336 335
344 344 345 344 342 341 341 341 340 340 341 341 341 341 341 340 337 337 336 336 335 336